sat.trackr.live / text

‹ back to catalog

STARLINK-36518

NORAD 67453 · 2026-008J

PAYLOAD ACTIVE UNKNOWN

§ Identity

Operator
Country
US
Launch date
2026-01-14
Launch site
AFETR
Launch vehicle
Mass (kg)
RCS (m²)

Purposes: comms

External: N2YO · Heavens-Above · Gunter

§ Orbital elements

Epoch: 2026-09-19T12:23:33.848736Z

Period
94.27 min
Inclination
43.0007°
Eccentricity
0.0000837
Mean motion
15.27591903 rev/d
Perigee alt
482.4 km
Apogee alt
483.6 km
Semi-major
6,861.2 km
B*
5.5092e-4
RAAN
190.7372°
Arg perigee
287.8959°
Mean anomaly
72.1801°
Rev number
3,921

§ Raw data

STARLINK-365181 67453U 26008J   26262.51636399  .00014934  00000+0  55092-3 0  99952 67453  43.0007 190.7372 0000837 287.8959  72.1801 15.27591903 39212

JSON: /api/v1/satellites/67453 · /tle

For live sub-satellite position, see the globe view (requires WebGL).

§ Visibility from observer

Set your observer location to see the next 7 days of passes ≥ 10°. The values pass through the URL so the page stays shareable.

No JS? Fill the form by hand. The geolocation button needs JavaScript.